sat.trackr.live / text

‹ back to catalog

STARLINK-37046

NORAD 68102 · 2026-044B

PAYLOAD ACTIVE UNKNOWN

§ Identity

Operator
Country
US
Launch date
2026-03-08
Launch site
AFWTR
Launch vehicle
Mass (kg)
RCS (m²)

Purposes: comms

External: N2YO · Heavens-Above · Gunter

§ Orbital elements

Epoch: 2026-09-19T07:55:03.886176Z

Period
93.91 min
Inclination
97.2871°
Eccentricity
0.0001220
Mean motion
15.33449045 rev/d
Perigee alt
464.7 km
Apogee alt
466.4 km
Semi-major
6,843.7 km
B*
5.1986e-4
RAAN
221.2239°
Arg perigee
106.2538°
Mean anomaly
253.8839°
Rev number
3,125

§ Raw data

STARLINK-370461 68102U 26044B   26262.32990609  .00016747  00000+0  51986-3 0  99952 68102  97.2871 221.2239 0001220 106.2538 253.8839 15.33449045 31251

JSON: /api/v1/satellites/68102 · /tle

For live sub-satellite position, see the globe view (requires WebGL).

§ Visibility from observer

Set your observer location to see the next 7 days of passes ≥ 10°. The values pass through the URL so the page stays shareable.

No JS? Fill the form by hand. The geolocation button needs JavaScript.